Pikeville, NC

4:26 PM EST on December 03, 2016 (GMT -0500)
Goldsboro-Wayne Municipal

Weather History for KGWW - February, 2014

Change the Weather History Date:

Tuesday, February 11, 2014

  Actual Average (KGSB) Record (KGSB)
Temperature  
Mean Temperature 30 °F -  
Max Temperature 34 °F 55 °F 75 °F (2009)
Min Temperature 26 °F 35 °F 22 °F (2011)
Degree Days  
Heating Degree Days 34    
Moisture  
Dew Point 26 °F    
Average Humidity 83    
Maximum Humidity 93    
Minimum Humidity 64    
Precipitation  
Precipitation 0.00 in - - ()
Sea Level Pressure  
Sea Level Pressure 30.33 in    
Wind  
Wind Speed 8 mph (NE)    
Max Wind Speed 17 mph    
Max Gust Speed 23 mph    
Visibility 8 miles    
Events Rain , Snow    
Averages and records for this station are not official NWS values.
T = Trace of Precipitation, MM = Missing Value Source: NWS Daily Summary

Daily Weather History Graph

Daily Weather History Graph

Search for Another Location

Airport or City:

Trip Planner

Search our weather history database for the weather conditions in past years. The results will help you decide how hot, cold, wet, or windy it might be!

Date:

Astronomy

Feb. 11, 2014 Rise Set
Actual Time 7:02 AM EST 5:50 PM EST
Civil Twilight 6:36 AM EST 6:16 PM EST
Nautical Twilight 6:06 AM EST 6:46 PM EST
Astronomical Twilight 5:36 AM EST 7:15 PM EST
Moon 3:11 PM EST (2/11) 4:35 AM EST (2/11)
Length of Visible Light 11h 39m
Length of Day
10h 47m
Waxing Gibbous, 90% of the Moon is Illuminated
Feb 11
Waxing Gibbous
Feb 14
Full
Feb 22
Last Quarter
Mar 1
New
Mar 8
First Quarter

Hourly Weather History & Observations

Time (EST) Temp. Windchill Dew Point Humidity Pressure Visibility Wind Dir Wind Speed Gust Speed Precip Events Conditions
12:15 AM 35.2 °F 29.5 °F 32.9 °F 91% 30.25 in 10.0 mi NE 6.9 mph - N/A   Overcast
12:35 AM 34.9 °F 29.9 °F 32.0 °F 89% 30.26 in 10.0 mi NE 5.8 mph - N/A   Overcast
12:55 AM 34.9 °F 29.9 °F 32.2 °F 90% 30.25 in 7.0 mi NE 5.8 mph - N/A Rain Light Rain
1:15 AM 34.7 °F 30.6 °F 32.2 °F 91% 30.25 in 10.0 mi ENE 4.6 mph - N/A   Overcast
1:35 AM 34.7 °F - 32.2 °F 91% 30.25 in 7.0 mi Calm Calm - N/A   Overcast
1:55 AM 34.7 °F 28.8 °F 32.0 °F 90% 30.25 in 10.0 mi NE 6.9 mph - N/A   Overcast
2:15 AM 34.3 °F 29.2 °F 32.0 °F 91% 30.25 in 7.0 mi ENE 5.8 mph - N/A   Overcast
2:35 AM 34.2 °F 31.2 °F 32.0 °F 92% 30.25 in 10.0 mi ENE 3.5 mph - N/A   Overcast
2:55 AM 34.2 °F 29.0 °F 31.6 °F 90% 30.25 in 10.0 mi NE 5.8 mph - N/A   Overcast
3:15 AM 34.2 °F 25.7 °F 31.8 °F 91% 30.25 in 10.0 mi NNE 11.5 mph - N/A   Overcast
3:35 AM 33.8 °F 26.4 °F 30.2 °F 87% 30.26 in 10.0 mi NNE 9.2 mph - N/A   Overcast
3:55 AM 33.3 °F 25.7 °F 28.8 °F 84% 30.25 in 10.0 mi NE 9.2 mph - N/A   Overcast
4:15 AM 33.1 °F 26.9 °F 29.3 °F 86% 30.25 in 10.0 mi NE 6.9 mph - N/A   Overcast
4:35 AM 32.9 °F 24.7 °F 28.0 °F 82% 30.26 in 10.0 mi NE 10.4 mph 16.1 mph N/A   Overcast
4:55 AM 32.5 °F 25.5 °F 26.8 °F 79% 30.26 in 10.0 mi NE 8.1 mph - N/A   Overcast
5:15 AM 32.0 °F 22.1 °F 25.3 °F 76% 30.27 in 10.0 mi NNE 13.8 mph - N/A   Overcast
5:35 AM 32.0 °F 23.0 °F 24.3 °F 73% 30.27 in 10.0 mi NE 11.5 mph - N/A   Overcast
5:55 AM 32.0 °F 24.8 °F 24.8 °F 75% 30.29 in 10.0 mi NE 8.1 mph - N/A   Overcast
6:15 AM 32.0 °F 22.1 °F 23.0 °F 69% 30.29 in 10.0 mi NE 13.8 mph 17.3 mph N/A   Overcast
6:35 AM 32.0 °F 24.8 °F 22.5 °F 68% 30.29 in 10.0 mi NE 8.1 mph - N/A   Overcast
6:55 AM 32.0 °F 24.2 °F 23.2 °F 70% 30.30 in 10.0 mi NE 9.2 mph - N/A   Overcast
7:15 AM 32.0 °F 24.2 °F 22.6 °F 68% 30.31 in 10.0 mi NE 9.2 mph 18.4 mph N/A   Overcast
7:35 AM 32.0 °F 23.6 °F 23.0 °F 69% 30.32 in 10.0 mi NE 10.4 mph - N/A   Overcast
7:55 AM 32.0 °F 24.2 °F 23.5 °F 71% 30.32 in 10.0 mi NE 9.2 mph 16.1 mph N/A   Overcast
8:15 AM 32.0 °F 25.6 °F 24.3 °F 73% 30.33 in 10.0 mi NE 6.9 mph - N/A   Overcast
8:35 AM 32.0 °F 21.6 °F 23.9 °F 72% 30.34 in 10.0 mi NE 15.0 mph 23.0 mph N/A   Overcast
8:55 AM 32.0 °F 23.6 °F 23.9 °F 72% 30.34 in 10.0 mi NE 10.4 mph 16.1 mph N/A   Overcast
9:15 AM 32.0 °F 22.5 °F 21.7 °F 66% 30.34 in 10.0 mi NE 12.7 mph 20.7 mph N/A   Overcast
9:35 AM 32.0 °F 20.8 °F 21.2 °F 64% 30.35 in 10.0 mi NNE 17.3 mph 20.7 mph N/A   Overcast
9:55 AM 31.8 °F 23.3 °F 21.9 °F 67% 30.36 in 10.0 mi NE 10.4 mph 16.1 mph N/A   Overcast
10:15 AM 31.8 °F 22.8 °F 22.5 °F 68% 30.36 in 10.0 mi NNE 11.5 mph - N/A   Overcast
10:35 AM 31.5 °F 20.5 °F 22.1 °F 68% 30.36 in 7.0 mi NNE 16.1 mph - N/A Snow Light Snow
10:55 AM 30.9 °F 22.2 °F 22.8 °F 72% 30.36 in 5.0 mi NE 10.4 mph 17.3 mph N/A Snow Light Snow
11:15 AM 30.7 °F 20.9 °F 23.0 °F 73% 30.36 in 7.0 mi NE 12.7 mph 17.3 mph N/A Snow Light Snow
11:35 AM 30.0 °F 20.5 °F 23.9 °F 78% 30.36 in 2.0 mi NNE 11.5 mph 18.4 mph N/A Snow Light Snow
11:55 AM 28.0 °F 17.5 °F 25.0 °F 88% 30.37 in 0.5 mi NNE 12.7 mph 19.6 mph N/A Snow Snow
12:15 PM 28.0 °F 19.3 °F 26.1 °F 92% 30.37 in 0.8 mi NNE 9.2 mph - N/A Snow Snow
12:35 PM 27.7 °F 16.6 °F 25.9 °F 93% 30.35 in 0.5 mi NNE 13.8 mph - N/A Snow Snow
12:55 PM 27.5 °F 17.4 °F 25.3 °F 92% 30.35 in 1.0 mi NNE 11.5 mph - N/A Snow Light Snow
1:15 PM 27.1 °F 15.9 °F 25.0 °F 92% 30.34 in 1.0 mi NNE 13.8 mph - N/A Snow Light Snow
1:35 PM 27.1 °F 15.4 °F 25.0 °F 92% 30.35 in 1.0 mi North 15.0 mph - N/A Snow Light Snow
1:55 PM 26.8 °F 17.7 °F 25.0 °F 93% 30.35 in 0.5 mi NNE 9.2 mph - N/A Snow Snow
2:15 PM 26.8 °F 17.1 °F 25.0 °F 93% 30.35 in 0.5 mi NNE 10.4 mph - N/A Snow Light Snow
2:35 PM 27.3 °F 16.6 °F 25.3 °F 92% 30.34 in 1.0 mi NNE 12.7 mph - N/A Snow Light Snow
2:55 PM 27.1 °F 16.9 °F 24.8 °F 91% 30.35 in 1.0 mi NNE 11.5 mph - N/A Snow Light Snow
3:15 PM 27.3 °F 17.1 °F 24.6 °F 90% 30.34 in 1.0 mi NNE 11.5 mph 18.4 mph N/A Snow Light Snow
3:35 PM 27.5 °F 19.3 °F 24.8 °F 90% 30.34 in 1.8 mi NE 8.1 mph - N/A Snow Light Snow
3:55 PM 27.5 °F 19.3 °F 24.8 °F 90% 30.35 in 1.5 mi NNE 8.1 mph - N/A Snow Light Snow
4:15 PM 27.5 °F 20.2 °F 24.8 °F 90% 30.34 in 2.0 mi NE 6.9 mph - N/A Snow Light Snow
4:35 PM 28.0 °F 20.8 °F 24.4 °F 86% 30.34 in 10.0 mi NNE 6.9 mph - N/A   Overcast
4:55 PM 28.2 °F 23.1 °F 24.1 °F 84% 30.35 in 10.0 mi NE 4.6 mph - N/A   Overcast
5:15 PM 28.2 °F 23.1 °F 24.3 °F 85% 30.35 in 10.0 mi NE 4.6 mph - N/A   Overcast
5:35 PM 28.2 °F 22.0 °F 24.3 °F 85% 30.35 in 10.0 mi NNE 5.8 mph - N/A   Overcast
5:55 PM 28.4 °F 23.3 °F 24.4 °F 85% 30.35 in 10.0 mi NNE 4.6 mph - N/A   Overcast
6:15 PM 28.4 °F - 24.8 °F 86% 30.35 in 10.0 mi Calm Calm - N/A   Overcast
6:35 PM 28.4 °F - 25.3 °F 88% 30.35 in 10.0 mi Calm Calm - N/A   Overcast
6:55 PM 28.4 °F - 25.5 °F 89% 30.36 in 10.0 mi Calm Calm - N/A   Overcast
7:15 PM 28.6 °F - 25.9 °F 90% 30.37 in 10.0 mi Calm Calm - N/A   Overcast
7:35 PM 28.8 °F - 25.7 °F 88% 30.37 in 10.0 mi Calm Calm - N/A   Mostly Cloudy
7:55 PM 28.8 °F 25.0 °F 26.1 °F 90% 30.38 in 10.0 mi NNE 3.5 mph - N/A   Scattered Clouds
8:15 PM 28.9 °F - 26.2 °F 90% 30.38 in 10.0 mi Calm Calm - N/A   Scattered Clouds
8:35 PM 28.9 °F - 26.2 °F 90% 30.39 in 10.0 mi Calm Calm - N/A   Scattered Clouds
8:55 PM 28.8 °F - 26.2 °F 90% 30.40 in 10.0 mi Calm Calm - N/A   Scattered Clouds
9:15 PM 28.4 °F - 26.6 °F 93% 30.40 in 7.0 mi Calm Calm - N/A   Mostly Cloudy
9:35 PM 28.2 °F - 26.2 °F 92% 30.40 in 7.0 mi Calm Calm - N/A   Mostly Cloudy
9:55 PM 28.2 °F - 26.2 °F 92% 30.40 in 7.0 mi Calm Calm - N/A   Overcast
10:15 PM 28.8 °F 23.7 °F 25.9 °F 89% 30.40 in 10.0 mi NNE 4.6 mph - N/A   Overcast
10:35 PM 29.3 °F 22.3 °F 23.9 °F 80% 30.40 in 10.0 mi NNE 6.9 mph - N/A   Overcast
10:55 PM 29.3 °F 22.3 °F 22.6 °F 76% 30.41 in 10.0 mi NNE 6.9 mph - N/A   Overcast
11:15 PM 29.3 °F 24.3 °F 22.5 °F 76% 30.40 in 10.0 mi NE 4.6 mph - N/A   Overcast
11:35 PM 29.3 °F 25.6 °F 22.5 °F 76% 30.40 in 10.0 mi NE 3.5 mph - N/A   Overcast
11:55 PM 29.3 °F 23.2 °F 22.6 °F 76% 30.40 in 10.0 mi NE 5.8 mph - N/A   Overcast